[[{"header":{"parameterUnit":"m.s-1","parameterCategory":1,"la1":30.2991,"la2":30.254,"lo1":-89.0895,"lo2":-89.0444,"dy":0.0017,"dx":0.0017,"nx":28,"ny":28,"refTime":"2024-03-22T21:00:00:Z","depth":0,"parameterNumber":2,"parameterNumberName":"U-component_of_WINDS"},"data":[0,0,0,0,0,0,0,0,0,0,0,0,0,0,0,0,0,0,0,0,0,0,0,0,0,0,0,0,0,0,0,0,0,0,0,0,0,0,0,0,0,0,0,0,0,0,0,0,0,0,0,0,0,0,0,0,0,0,0.9216,0.9216,0,0.9226,0.9226,0.9227,0.9198,0.9197,0.9196,0.9196,0.9209,0.921,0.9211,0,0,0,0,0,0,0,0,0,0,0,0,0,0.9175,0.9176,0.9216,0.9216,0.9216,0.9226,0.9226,0.9227,0.9198,0.9197,0.9196,0.9195,0.9209,0.921,0.9211,0,0,0,0,0,0,0,0,0,0,0,0,0,0.919,0.9176,0.9216,0.9203,0.9202,0.9226,0.9226,0.9227,0.9199,0.9197,0.9196,0.9195,0.9208,0.921,0.9212,0.9249,0,0,0.9217,0.9218,0,0,0,0,0,0,0,0,0.9189,0.9191,0.9205,0.9204,0.9203,0.9209,0.9217,0.9234,0.9199,0.92,0.9196,0.9194,0.921,0.9212,0.9217,0.925,0.925,0.9217,0.9218,0.9219,0.9219,0,0,0,0,0,0,0,0.9188,0.9191,0.922,0.9205,0.9204,0.9198,0.9199,0.922,0.9213,0.92,0.9198,0.9199,0.921,0.9215,0.9217,0.9251,0.9217,0.9219,0.922,0.922,0.9318,0.9319,0,0,0,0,0,0,0.9188,0.919,0.922,0.922,0.9192,0.92,0.9201,0.9209,0.9212,0.9211,0.92,0.9198,0.9213,0.9215,0.9217,0.9263,0.9219,0.9221,0.9222,0.9316,0.9318,0.932,0,0,0,0,0,0,0.9187,0.9191,0.9219,0.9205,0.9208,0.9202,0.9211,0.921,0.9215,0.9213,0.9212,0.9207,0.9212,0.9215,0.9242,0.9263,0.9221,0.9223,0.9315,0.9317,0.9319,0.9354,0,0,0,0,0,0,0.9186,0.9191,0.9204,0.9205,0.9209,0.9242,0.9213,0.9211,0.9218,0.9215,0.9219,0.9218,0.9211,0.9239,0.9244,0.9265,0.9224,0.9313,0.9316,0.9318,0.9351,0.9358,0.9363,0,0,0,0,0,0.9185,0.9213,0.9205,0.9208,0.9225,0.9244,0.9246,0.9236,0.922,0.9234,0.9233,0.9218,0.926,0.9242,0.9247,0.9269,0.9311,0.9315,0.9318,0.9349,0.9356,0.9363,0,0,0,0,0,0,0.9215,0.9213,0.9204,0.9233,0.9239,0.9239,0.9256,0.9244,0.9255,0.9252,0.924,0.9242,0.9271,0.9273,0.9253,0.9307,0.9283,0.9288,0.9305,0.9312,0.9318,0.9317,0.9226,0,0,0,0,0,0.9225,0.924,0.9238,0.9264,0.9268,0.9262,0.9269,0.9262,0.9267,0.927,0.927,0.9277,0.9292,0.9302,0.9316,0.9352,0.9353,0.9369,0.9375,0.938,0.9384,0.9405,0.9413,0.9331,0.9331,0.9331,0,0,0.9247,0.9247,0.9257,0.9271,0.9274,0.9291,0.9264,0.9282,0.9295,0.9273,0.9298,0.9299,0.9307,0.9339,0.9353,0.9341,0.9407,0.9384,0.9388,0.939,0.941,0.9418,0.9424,0.9333,0.9333,0.9333,0,0,0.9294,0.9295,0.9318,0.9322,0.9328,0.9324,0.933,0.9332,0.9332,0.9357,0.9342,0.9358,0.9383,0.9389,0.9396,0.9448,0.9436,0.9453,0.9484,0.9505,0.9511,0.9517,0.9537,0.9544,0.9457,0.9457,0.9457,0,0.932,0.9343,0.9332,0.9351,0.9359,0.934,0.9364,0.9369,0.9379,0.9385,0.9371,0.9404,0.9408,0.9442,0.9455,0.9461,0.9468,0.9452,0.9511,0.9516,0.9522,0.9541,0.9548,0.9459,0.9459,0.9459,0.9459,0,0.9375,0.9392,0.941,0.942,0.9429,0.9451,0.9445,0.9456,0.9448,0.9447,0.9474,0.9478,0.9493,0.95,0.9493,0.9535,0.9527,0.9512,0.9488,0.9532,0.955,0.9557,0.9462,0.9462,0.9461,0.946,0,0,0.9441,0.9446,0.9452,0.9458,0.9463,0.9477,0.9499,0.9513,0.9524,0.9532,0.9552,0.9575,0.9562,0.9569,0.9562,0.9581,0.9624,0.9564,0.9564,0.9576,0.9673,0.9685,0.9693,0.9616,0.9618,0.9619,0.9673,0,0.9488,0.9525,0.9517,0.9554,0.9571,0.9554,0.9573,0.958,0.958,0.9595,0.9595,0.9612,0.9592,0.9597,0.9614,0.9615,0.9644,0.9611,0.9636,0.9637,0.9635,0.9702,0.9714,0.9765,0.968,0.9681,0.9682,0,0.9548,0.9559,0.9597,0.9602,0.9609,0.9627,0.964,0.9654,0.9662,0.9661,0.9671,0.9661,0.9685,0.9661,0.9695,0.9673,0.9683,0.9685,0.9687,0.969,0.9662,0.9708,0.9781,0.9789,0.9692,0.9691,0.9691,0,0.9594,0.9618,0.9644,0.9649,0.9655,0.9669,0.9672,0.9679,0.9688,0.9701,0.9708,0.9723,0.9731,0.9744,0.974,0.9722,0.9776,0.9751,0.9777,0.9777,0.9789,0.9788,0.9866,0.9794,0.9794,0.9794,0.9794,0,0.9648,0.9673,0.9665,0.9682,0.971,0.9701,0.9729,0.9731,0.9738,0.9756,0.9742,0.976,0.9753,0.977,0.9767,0.9797,0.9801,0.9802,0.9801,0.9803,0.9803,0.981,0.9807,0.9796,0.9795,0.9795,0.9795,0,0.9703,0.9699,0.9728,0.9731,0.9733,0.9754,0.9758,0.9774,0.9773,0.9797,0.9802,0.9801,0.9821,0.9818,0.984,0.9838,0.9876,0.9871,0.9873,0.9872,0.9899,0.9898,0.9984,0.9996,0.9916,0.9917,0.9917,0,0.9739,0.9757,0.9763,0.9774,0.9779,0.9796,0.9806,0.9799,0.981,0.9822,0.9838,0.9857,0.9872,0.9905,0.9908,0.9926,0.9921,0.995,0.9924,0.9926,0.9923,0.9923,0.9925,0.9956,0.9957,0.9957,0.9958,0,0.9802,0.9799,0.9814,0.9829,0.9841,0.9852,0.9862,0.9872,0.9866,0.988,0.9901,0.9912,0.9936,0.9956,0.9973,0.9978,0.9968,0.9966,0.9974,0.9977,0.9978,0.998,0.9889,0.9964,0.9964,0.9963,0.9963,0.9963,0.9849,0.9866,0.9873,0.989,0.9897,0.9908,0.9924,0.9925,0.9942,0.996,0.9955,0.9979,0.9989,1.0011,1.0019,1.0038,1.0028,1.0038,1.0041,1.0044,1.0048,0.9975,1.0041,1.0041,1.0041,1.0041,1.0041,0,0.9913,0.9917,0.9933,0.9948,0.9962,0.9951,0.9962,0.9975,0.9996,1.0006,1.0021,1.0046,1.0066,1.007,1.009,1.0105,1.0101,1.011,1.011,1.0112,1.0055,1.0047,1.0113,1.0113,1.0113,1.0113,1.0113,1.0113,0.9948,0.9976,0.9975,1.0007,1.0012,1.0034,1.0042,1.0052,1.006,1.0088,1.0104,1.0107,1.0116,1.0136,1.0154,1.0155,1.0164,1.0176,1.0175,1.0122,1.0115,1.0108,1.0101,1.0177,1.0177,1.023,1.023,1.0231]},{"header":{"parameterUnit":"m.s-1","parameterCategory":1,"la1":30.2991,"la2":30.254,"lo1":-89.0895,"lo2":-89.0444,"dy":0.0017,"dx":0.0017,"nx":28,"ny":28,"refTime":"2024-03-22T21:00:00:Z","depth":0,"parameterNumber":3,"parameterNumberName":"V-component_of_WINDS"},"data":[0,0,0,0,0,0,0,0,0,0,0,0,0,0,0,0,0,0,0,0,0,0,0,0,0,0,0,0,0,0,0,0,0,0,0,0,0,0,0,0,0,0,0,0,0,0,0,0,0,0,0,0,0,0,0,0,0,0,-8.0881,-8.0881,0,-8.0919,-8.092,-8.092,-8.084,-8.0837,-8.0835,-8.0832,-8.0866,-8.0869,-8.0872,0,0,0,0,0,0,0,0,0,0,0,0,0,-8.0732,-8.0735,-8.0881,-8.0881,-8.0882,-8.0919,-8.092,-8.092,-8.084,-8.0837,-8.0834,-8.0831,-8.0865,-8.0869,-8.0872,0,0,0,0,0,0,0,0,0,0,0,0,0,-8.0786,-8.0736,-8.0881,-8.0846,-8.0844,-8.0919,-8.092,-8.092,-8.0841,-8.0837,-8.0833,-8.083,-8.0863,-8.0868,-8.0873,-8.0981,0,0,-8.0888,-8.089,0,0,0,0,0,0,0,0,-8.0783,-8.0792,-8.0851,-8.0849,-8.0846,-8.0871,-8.088,-8.0941,-8.0842,-8.0842,-8.0832,-8.0828,-8.087,-8.0874,-8.089,-8.0983,-8.0984,-8.0889,-8.0892,-8.0894,-8.0895,0,0,0,0,0,0,0,-8.078,-8.079,-8.0896,-8.0852,-8.0849,-8.0827,-8.0831,-8.0891,-8.0877,-8.0842,-8.0836,-8.0842,-8.0868,-8.0885,-8.089,-8.0985,-8.0888,-8.0893,-8.0896,-8.0898,-8.117,-8.1174,0,0,0,0,0,0,-8.0781,-8.0787,-8.0894,-8.0897,-8.0805,-8.0833,-8.0837,-8.0867,-8.0876,-8.0874,-8.0845,-8.0838,-8.0879,-8.0884,-8.0891,-8.1019,-8.0894,-8.0898,-8.0901,-8.1166,-8.1171,-8.1175,0,0,0,0,0,0,-8.0778,-8.0791,-8.0893,-8.0841,-8.0852,-8.084,-8.0874,-8.087,-8.0887,-8.0879,-8.0876,-8.0866,-8.0876,-8.0884,-8.096,-8.1019,-8.0901,-8.0905,-8.1161,-8.1167,-8.1173,-8.1277,0,0,0,0,0,0,-8.0774,-8.0791,-8.0833,-8.0842,-8.0855,-8.0963,-8.0878,-8.0873,-8.0896,-8.0887,-8.0897,-8.0895,-8.0873,-8.0953,-8.0965,-8.1024,-8.0909,-8.1155,-8.1164,-8.1171,-8.1268,-8.1286,-8.1301,0,0,0,0,0,-8.0769,-8.0859,-8.0836,-8.0849,-8.0908,-8.0967,-8.0974,-8.0949,-8.0901,-8.0943,-8.0938,-8.0895,-8.1011,-8.0962,-8.0974,-8.1036,-8.1151,-8.1161,-8.1171,-8.126,-8.1282,-8.1301,0,0,0,0,0,0,-8.0854,-8.0859,-8.0834,-8.0929,-8.0949,-8.0953,-8.1005,-8.0972,-8.1004,-8.0994,-8.0959,-8.0962,-8.1045,-8.1048,-8.0993,-8.1142,-8.1073,-8.1086,-8.1137,-8.1158,-8.1174,-8.1171,-8.0913,0,0,0,0,0,-8.0885,-8.0934,-8.0935,-8.1019,-8.1031,-8.1017,-8.1041,-8.1021,-8.1038,-8.1045,-8.1046,-8.1063,-8.1103,-8.1131,-8.1167,-8.1268,-8.1269,-8.1316,-8.1333,-8.1347,-8.1358,-8.1412,-8.1433,-8.1207,-8.1207,-8.1207,0,0,-8.0946,-8.0956,-8.0988,-8.1037,-8.1049,-8.11,-8.1024,-8.108,-8.1117,-8.1053,-8.1126,-8.1127,-8.1144,-8.1234,-8.1273,-8.1238,-8.1421,-8.1359,-8.137,-8.1373,-8.1424,-8.1445,-8.1464,-8.1213,-8.1212,-8.1211,0,0,-8.1086,-8.1098,-8.117,-8.1185,-8.1207,-8.1197,-8.1214,-8.1225,-8.1224,-8.1297,-8.1251,-8.1293,-8.1363,-8.1378,-8.1394,-8.1542,-8.1503,-8.1554,-8.1641,-8.1694,-8.1712,-8.1728,-8.178,-8.18,-8.1566,-8.1566,-8.1566,0,-8.116,-8.1237,-8.1211,-8.1272,-8.1294,-8.1242,-8.1314,-8.1329,-8.136,-8.1376,-8.1337,-8.1426,-8.1433,-8.1526,-8.1562,-8.1577,-8.1595,-8.1553,-8.1712,-8.1727,-8.1741,-8.1791,-8.1811,-8.1572,-8.1571,-8.1571,-8.157,0,-8.1327,-8.1381,-8.1436,-8.1471,-8.1499,-8.1566,-8.1549,-8.158,-8.1558,-8.1552,-8.1627,-8.1635,-8.1673,-8.1693,-8.167,-8.1783,-8.1761,-8.1718,-8.1648,-8.177,-8.1816,-8.1835,-8.1581,-8.1579,-8.1577,-8.1575,0,0,-8.1519,-8.1541,-8.1562,-8.1578,-8.1598,-8.1638,-8.1702,-8.1741,-8.1769,-8.1793,-8.1845,-8.1907,-8.1868,-8.1886,-8.1865,-8.1912,-8.2029,-8.1862,-8.1862,-8.1893,-8.2154,-8.2186,-8.2209,-8.2004,-8.2007,-8.201,-8.2153,0,-8.1658,-8.177,-8.175,-8.1858,-8.1908,-8.186,-8.1915,-8.1933,-8.1929,-8.1969,-8.1964,-8.2009,-8.1954,-8.1965,-8.2009,-8.2005,-8.2081,-8.1995,-8.2051,-8.2053,-8.2048,-8.2233,-8.2267,-8.2401,-8.217,-8.2173,-8.2176,0,-8.1834,-8.1868,-8.1983,-8.1997,-8.2017,-8.2067,-8.2103,-8.2142,-8.2161,-8.2155,-8.2178,-8.2148,-8.221,-8.2141,-8.2225,-8.2167,-8.2189,-8.2191,-8.2195,-8.2199,-8.2122,-8.2242,-8.2443,-8.2464,-8.2204,-8.2202,-8.22,0,-8.1964,-8.2037,-8.2116,-8.2131,-8.2149,-8.2186,-8.2195,-8.221,-8.2236,-8.2266,-8.2282,-8.2319,-8.2338,-8.2367,-8.2347,-8.2298,-8.2435,-8.2364,-8.2431,-8.2432,-8.2462,-8.246,-8.2669,-8.2476,-8.2476,-8.2476,-8.2475,0,-8.2121,-8.2193,-8.2175,-8.2223,-8.2302,-8.2277,-8.2356,-8.2359,-8.2373,-8.242,-8.238,-8.2424,-8.2395,-8.2437,-8.2422,-8.2495,-8.2504,-8.25,-8.2495,-8.2504,-8.2504,-8.2517,-8.2507,-8.2481,-8.248,-8.2479,-8.2478,0,-8.2278,-8.2269,-8.2352,-8.2364,-8.2369,-8.2426,-8.2436,-8.248,-8.2474,-8.2534,-8.2547,-8.2537,-8.2585,-8.2568,-8.2618,-8.2607,-8.2701,-8.2683,-8.2695,-8.2691,-8.2759,-8.2753,-8.2984,-8.3013,-8.2801,-8.2803,-8.2805,0,-8.2379,-8.2434,-8.2453,-8.2483,-8.2496,-8.2544,-8.2571,-8.2549,-8.2578,-8.2606,-8.2647,-8.2691,-8.2725,-8.2803,-8.2799,-8.2837,-8.2821,-8.2899,-8.2826,-8.2833,-8.2822,-8.2819,-8.2824,-8.2913,-8.2916,-8.2918,-8.2919,0,-8.2559,-8.2553,-8.2594,-8.2636,-8.267,-8.27,-8.2726,-8.2753,-8.2732,-8.2767,-8.2817,-8.2843,-8.2896,-8.294,-8.2975,-8.2982,-8.2947,-8.2943,-8.296,-8.297,-8.2974,-8.2973,-8.2735,-8.2937,-8.2935,-8.2934,-8.2933,-8.2932,-8.2691,-8.2738,-8.276,-8.2808,-8.2827,-8.2853,-8.2896,-8.2897,-8.2939,-8.2982,-8.2965,-8.3022,-8.304,-8.3084,-8.3096,-8.3139,-8.3109,-8.3134,-8.314,-8.3147,-8.3156,-8.2968,-8.3145,-8.3145,-8.3144,-8.3144,-8.3143,0,-8.2869,-8.2882,-8.2927,-8.2967,-8.3005,-8.2972,-8.3,-8.3033,-8.3085,-8.3106,-8.3141,-8.3199,-8.3242,-8.3243,-8.3283,-8.3317,-8.3302,-8.3328,-8.3325,-8.3328,-8.3181,-8.3162,-8.334,-8.334,-8.334,-8.334,-8.334,-8.334,-8.2967,-8.3045,-8.3042,-8.3129,-8.3139,-8.3197,-8.3216,-8.324,-8.3257,-8.3324,-8.336,-8.3362,-8.3374,-8.3416,-8.3454,-8.3452,-8.3469,-8.3501,-8.3494,-8.3357,-8.3338,-8.3319,-8.3301,-8.3505,-8.3505,-8.3637,-8.3638,-8.3639]}]]